星链-35931(STARLINK-35931)

导读

STARLINK-35931是美国SpaceX公司于2025年11月19日发射的星链(Starlink)低地球轨道卫星,属于星链全球卫星互联网星座组网的组成部分。星链项目旨在为全球偏远、基础设施缺失地区提供高速、低延迟的宽带互联网接入服务,STARLINK-35931入轨后将进一步拓展星链星座的覆盖范围与网络容量,助力项目实现全球无缝宽带连接的目标,同时也延续了星链星座快速迭代扩张的部署节奏。

Basic Information
目录编号:
66519
目录名称:
STARLINK-35931
国际标识:
2025-265D
轨道中心:
EARTH
卫星名称:
星链-35931
卫星全名:
星链-35931(STARLINK-35931)
卫星状态:
在轨 (已飞行206 天)
发射日期:
2025-11-19 UTC
国别 :
美国 (US)
星等 :
--
Orbit Information
数据来源 国际轨道数据 AOE轨道数据
星历时间 2026-06-11T11:12:55+0800
2天前
查看轨道信息
2026-06-10T07:00:00+0800
3天前
查看轨道信息
半长轴 6861.13km 6861.196km
偏心率 0.0001482 0.000001
轨道倾角 43.003° 43.002°
近地点辐角 271.176° 188.741°
升交点赤经 110.289° 116.932°
平近点角 88.892° 178.571°
近地点 481.976km 483.052km
远地点 484.01km 483.066km
周期 94.266分钟 94.267分钟
每日圈数 15.275989 15.275768
Detailed Information
固有亮度:
5
最大亮度:
2.5
卫星平台:
Starlink V1.0
覆盖范围:
全球
运营商:
太空探索技术公司
运营商所在国:
美国
制造商(研发单位):
太空探索技术公司
制造商所在国:
美国
使用方式:
暂无
Satellite Introduction
Starlink 计划是 SpaceX 推出的全球卫星互联网项目,通过发射低轨道卫星,为全球尤其是偏远地区提供高速、低延迟的互联网服务。自 2019 年起,Starlink 已部署数千颗卫星,旨在缩小全球数字鸿沟,推动互联网普及。该项目还为军事、航空等行业提供通信支持,带来广泛经济效益。
2D Orbit Map
3D Orbit Map
Orbit Altitude Analysis Chart
Orbit Inclination Analysis Chart
Orbit Comprehensive Analysis Chart
View Comprehensive Chart